• In Portugal
  • List of Countries
  • For 7 days
  • Water Temperature
  • Satellite Maps
  • Weather Map
  • Weather Widgets
  • user-avatar
    Login

    Hourly Weather Cuiaba

    Today, 18 August, Friday

    Time Temperature Precipitation Wind Pressure Humidity
    00:00 +28°C° 0 mm 3 mps 740 mmHg 58%
    01:00 +28°C° 0 mm 3 mps 740 mmHg 61%
    02:00 +27°C° 0 mm 3 mps 740 mmHg 64%
    03:00 +27°C° 0 mm 2 mps 740 mmHg 65%
    04:00 +26°C° 0 mm 2 mps 740 mmHg 66%
    05:00 +26°C° 0 mm 2 mps 740 mmHg 67%
    06:00 +27°C° 0 mm 2 mps 740 mmHg 64%
    07:00 +28°C° 0 mm 2 mps 741 mmHg 60%
    08:00 +29°C° 0 mm 2 mps 741 mmHg 56%
    09:00 +32°C° 0 mm 1 mps 741 mmHg 47%
    10:00 +35°C° 0 mm 1 mps 741 mmHg 39%
    11:00 +39°C° 0 mm 1 mps 740 mmHg 30%
    12:00 +39°C° 0 mm 1 mps 740 mmHg 27%
    13:00 +40°C° 0 mm 1 mps 739 mmHg 25%
    14:00 +40°C° 0 mm 2 mps 738 mmHg 23%
    15:00 +39°C° 0 mm 2 mps 737 mmHg 24%
    16:00 +39°C° 0 mm 2 mps 737 mmHg 25%
    17:00 +38°C° 0 mm 2 mps 737 mmHg 27%
    18:00 +36°C° 0 mm 2 mps 737 mmHg 30%
    19:00 +34°C° 0 mm 1 mps 737 mmHg 34%
    20:00 +32°C° 0 mm 1 mps 738 mmHg 38%
    21:00 +32°C° 0 mm 1 mps 738 mmHg 39%
    22:00 +31°C° 0 mm 1 mps 738 mmHg 40%
    23:00 +31°C° 0 mm 1 mps 738 mmHg 42%

    Tomorrow, 19 August, Saturday

    Time Temperature Precipitation Wind Pressure Humidity
    00:00 +30°C° 0 mm 1 mps 738 mmHg 42%
    01:00 +30°C° 0 mm 1 mps 737 mmHg 43%
    02:00 +30°C° 0 mm 1 mps 737 mmHg 44%
    03:00 +29°C° 0 mm 1 mps 737 mmHg 45%
    04:00 +29°C° 0 mm 1 mps 737 mmHg 46%
    05:00 +29°C° 0 mm 1 mps 737 mmHg 47%
    06:00 +30°C° 0 mm 1 mps 738 mmHg 44%
    07:00 +31°C° 0 mm 1 mps 738 mmHg 42%
    08:00 +31°C° 0 mm 0 mps 738 mmHg 39%
    09:00 +35°C° 0 mm 1 mps 738 mmHg 34%
    10:00 +38°C° 0 mm 3 mps 738 mmHg 28%
    11:00 +41°C° 0 mm 4 mps 738 mmHg 23%
    12:00 +42°C° 0 mm 4 mps 737 mmHg 21%
    13:00 +43°C° 0 mm 4 mps 736 mmHg 20%
    14:00 +44°C° 0 mm 3 mps 735 mmHg 18%
    15:00 +43°C° 0 mm 3 mps 735 mmHg 19%
    16:00 +41°C° 0 mm 2 mps 735 mmHg 20%
    17:00 +40°C° 0 mm 1 mps 735 mmHg 21%
    18:00 +39°C° 0 mm 1 mps 735 mmHg 22%
    19:00 +36°C° 0 mm 1 mps 736 mmHg 24%
    20:00 +35°C° 0 mm 1 mps 737 mmHg 26%
    21:00 +34°C° 0 mm 1 mps 737 mmHg 27%
    22:00 +34°C° 0 mm 1 mps 737 mmHg 28%
    23:00 +33°C° 0 mm 1 mps 738 mmHg 28%

    Day after tomorrow, 20 August, Sunday

    Time Temperature Precipitation Wind Pressure Humidity
    00:00 +33°C° 0 mm 1 mps 737 mmHg 29%
    01:00 +32°C° 0 mm 1 mps 737 mmHg 29%
    02:00 +32°C° 0 mm 1 mps 737 mmHg 29%
    03:00 +31°C° 0 mm 1 mps 737 mmHg 31%
    04:00 +31°C° 0 mm 1 mps 738 mmHg 32%
    05:00 +31°C° 0 mm 1 mps 738 mmHg 34%
    06:00 +31°C° 0 mm 1 mps 739 mmHg 34%
    07:00 +30°C° 0 mm 0 mps 740 mmHg 34%
    08:00 +31°C° 0 mm 0 mps 740 mmHg 34%
    09:00 +35°C° 0 mm 1 mps 741 mmHg 32%
    10:00 +38°C° 0 mm 2 mps 741 mmHg 30%
    11:00 +40°C° 0 mm 3 mps 741 mmHg 28%
    12:00 +40°C° 0.1 mm 4 mps 741 mmHg 32%
    13:00 +37°C° 0.1 mm 4 mps 740 mmHg 36%
    14:00 +36°C° 0.1 mm 5 mps 740 mmHg 41%
    15:00 +34°C° 2.2 mm 5 mps 740 mmHg 50%
    16:00 +32°C° 2.2 mm 4 mps 740 mmHg 59%
    17:00 +29°C° 2.2 mm 4 mps 740 mmHg 67%
    18:00 +29°C° 1.5 mm 4 mps 741 mmHg 70%
    19:00 +28°C° 1.5 mm 4 mps 742 mmHg 73%
    20:00 +28°C° 1.5 mm 4 mps 743 mmHg 75%
    21:00 +27°C° 0.2 mm 4 mps 743 mmHg 76%
    22:00 +27°C° 0.2 mm 4 mps 743 mmHg 77%
    23:00 +27°C° 0.2 mm 4 mps 744 mmHg 77%

    21 August, Monday

    Time Temperature Precipitation Wind Pressure Humidity
    00:00 +26°C° 0.1 mm 4 mps 743 mmHg 79%
    01:00 +26°C° 0.1 mm 4 mps 743 mmHg 80%
    02:00 +25°C° 0.1 mm 4 mps 742 mmHg 81%
    03:00 +25°C° 0 mm 4 mps 742 mmHg 80%
    04:00 +25°C° 0 mm 4 mps 742 mmHg 79%
    05:00 +23°C° 0 mm 4 mps 742 mmHg 79%
    06:00 +23°C° 0 mm 4 mps 743 mmHg 78%
    07:00 +23°C° 0 mm 4 mps 744 mmHg 77%
    08:00 +24°C° 0 mm 3 mps 744 mmHg 76%
    09:00 +25°C° 0 mm 3 mps 744 mmHg 72%
    10:00 +26°C° 0 mm 3 mps 744 mmHg 69%
    11:00 +26°C° 0 mm 3 mps 744 mmHg 66%
    12:00 +28°C° 0 mm 3 mps 743 mmHg 61%
    13:00 +29°C° 0 mm 3 mps 743 mmHg 55%
    14:00 +31°C° 0 mm 3 mps 742 mmHg 50%
    15:00 +31°C° 0 mm 3 mps 742 mmHg 50%
    16:00 +30°C° 0 mm 3 mps 742 mmHg 50%
    17:00 +30°C° 0 mm 3 mps 741 mmHg 51%
    18:00 +29°C° 0 mm 3 mps 742 mmHg 52%
    19:00 +28°C° 0 mm 3 mps 742 mmHg 54%
    20:00 +27°C° 0 mm 3 mps 743 mmHg 56%
    21:00 +27°C° 0 mm 3 mps 743 mmHg 57%
    22:00 +26°C° 0 mm 2 mps 743 mmHg 58%
    23:00 +26°C° 0 mm 2 mps 743 mmHg 59%

    22 August, Tuesday

    Time Temperature Precipitation Wind Pressure Humidity
    00:00 +25°C° 0 mm 2 mps 742 mmHg 60%
    01:00 +25°C° 0 mm 2 mps 742 mmHg 61%
    02:00 +25°C° 0 mm 2 mps 741 mmHg 62%
    03:00 +24°C° 0 mm 2 mps 741 mmHg 64%
    04:00 +24°C° 0 mm 1 mps 741 mmHg 66%
    05:00 +23°C° 0 mm 1 mps 741 mmHg 68%
    06:00 +25°C° 0 mm 1 mps 741 mmHg 65%
    07:00 +26°C° 0 mm 1 mps 741 mmHg 62%
    08:00 +27°C° 0 mm 1 mps 742 mmHg 59%
    09:00 +31°C° 0 mm 1 mps 741 mmHg 50%
    10:00 +34°C° 0 mm 1 mps 741 mmHg 42%
    11:00 +37°C° 0 mm 1 mps 741 mmHg 33%
    12:00 +39°C° 0 mm 1 mps 740 mmHg 30%
    13:00 +41°C° 0 mm 1 mps 739 mmHg 26%
    14:00 +42°C° 0 mm 1 mps 738 mmHg 23%
    15:00 +41°C° 0 mm 1 mps 738 mmHg 24%
    16:00 +39°C° 0 mm 1 mps 738 mmHg 26%
    17:00 +37°C° 0 mm 1 mps 737 mmHg 28%
    18:00 +35°C° 0 mm 1 mps 738 mmHg 31%
    19:00 +34°C° 0 mm 1 mps 738 mmHg 34%
    20:00 +33°C° 0 mm 1 mps 738 mmHg 38%
    21:00 +32°C° 0 mm 1 mps 738 mmHg 39%
    22:00 +32°C° 0 mm 1 mps 738 mmHg 40%
    23:00 +31°C° 0 mm 1 mps 738 mmHg 41%

    23 August, Wednesday

    Time Temperature Precipitation Wind Pressure Humidity
    00:00 +31°C° 0 mm 1 mps 738 mmHg 41%
    01:00 +31°C° 0 mm 1 mps 738 mmHg 41%
    02:00 +30°C° 0 mm 1 mps 737 mmHg 42%
    03:00 +30°C° 0 mm 1 mps 737 mmHg 41%
    04:00 +30°C° 0 mm 1 mps 738 mmHg 41%
    05:00 +30°C° 0 mm 1 mps 738 mmHg 40%
    06:00 +31°C° 0 mm 1 mps 738 mmHg 38%
    07:00 +31°C° 0 mm 2 mps 739 mmHg 36%
    08:00 +32°C° 0 mm 2 mps 739 mmHg 34%
    09:00 +36°C° 0 mm 3 mps 739 mmHg 28%
    10:00 +38°C° 0 mm 4 mps 739 mmHg 23%
    11:00 +42°C° 0 mm 5 mps 739 mmHg 17%
    12:00 +42°C° 0 mm 5 mps 738 mmHg 16%
    13:00 +43°C° 0 mm 5 mps 738 mmHg 16%
    14:00 +44°C° 0 mm 4 mps 737 mmHg 15%
    15:00 +42°C° 0 mm 4 mps 737 mmHg 17%
    16:00 +40°C° 0 mm 3 mps 737 mmHg 18%
    17:00 +39°C° 0 mm 2 mps 737 mmHg 20%
    18:00 +38°C° 0 mm 2 mps 737 mmHg 22%
    19:00 +36°C° 0 mm 2 mps 738 mmHg 24%
    20:00 +35°C° 0 mm 2 mps 738 mmHg 26%
    21:00 +34°C° 0 mm 2 mps 738 mmHg 27%
    22:00 +34°C° 0 mm 2 mps 738 mmHg 28%
    23:00 +32°C° 0 mm 2 mps 739 mmHg 29%
    Show more